Regional Weather Roundup
Issued by NWS

Home | Current Version | Previous Version | Text Only | Print | Product List | Glossary Off
Versions: 1 2 3 4 5 6 7 8 9 10 11 12 13 14 15 16 17 18 19 20 21 22 23 24 25 26 27 28 29 30 31 32 33 34 35 36 37 38 39 40 41 42 43 44 45 46 47 48 49 50

000
ASUS45 KPSR 032300
RWRAZ

ARIZONA REGIONAL HOURLY WEATHER ROUNDUP
NATIONAL WEATHER SERVICE PHOENIX AZ
400 PM MST SUN MAY 03 2015

NOTE: FAIR INDICATES FEW OR NO CLOUDS BELOW 12,000 FEET WITH NO
SIGNIFICANT WEATHER AND/OR OBSTRUCTIONS TO VISIBILITY.

AZZ001>003-036-040000-
NORTHWEST ARIZONA

CITY           SKY/WX    TMP DP  RH WIND       PRES   REMARKS
KINGMAN        MOSUNNY   83  34  17 SW20G39   29.85F
$$

AZZ004>008-015-016-018-040000-
NORTH CENTRAL ARIZONA

CITY           SKY/WX    TMP DP  RH WIND       PRES   REMARKS
GRAND CANYON   CLOUDY    58  41  53 N10       30.07F
PRESCOTT       SUNNY     74  31  20 SW15G24   29.95F
FLAGSTAFF      NOT AVBL
PAGE           PTSUNNY   76  35  22 SW9       29.90F
$$

AZZ009>014-017-040000-
NORTHEAST ARIZONA

CITY           SKY/WX    TMP DP  RH WIND       PRES   REMARKS
WINSLOW        NOT AVBL
SAINT JOHNS    PTSUNNY   71  30  21 SE20      29.97F
WINDOW ROCK    CLOUDY    64  35  34 N8        30.06S
$$

AZZ023-040000-
GREATER PHOENIX AREA

CITY           SKY/WX    TMP DP  RH WIND       PRES   REMARKS
PHOENIX        MOSUNNY   95  37  13 S8G18     29.71F
GLENDALE       MOSUNNY   91  41  17 SW12G17   29.73F
DEER VALLEY    SUNNY     90  35  14 VRB7G18   29.74F
SCOTTSDALE     SUNNY     91  36  14 S12G17    29.76F
MESA-FALCON    MOSUNNY   91  36  14 MISG      29.74F
MESA-GATEWAY   MOSUNNY   91  37  15 SW14G21   29.75F
CHANDLER       PTSUNNY   93  37  14 SW15      29.73F
$$

AZZ027-028-040000-
SOUTHWEST MARICOPA COUNTY AND PINAL COUNTY

CITY           SKY/WX    TMP DP  RH WIND       PRES   REMARKS
CASA GRANDE    SUNNY     93  37  14 SW16      29.72F
$$

AZZ503-504-507>509-040000-
SOUTHEAST ARIZONA

CITY           SKY/WX    TMP DP  RH WIND       PRES   REMARKS
TUCSON         MOSUNNY   87  31  13 VRB3      29.81F
RYAN FIELD       N/A     90  37  15 S9G16     29.80F
NOGALES        CLOUDY    84  34  16 S17G25    29.89F
SAFFORD        MOSUNNY   88  33  14 S13G18    29.80F
$$

AZZ020-021-025-026-031-040000-
SOUTHWEST ARIZONA

CITY           SKY/WX    TMP DP  RH WIND       PRES   REMARKS
YUMA           SUNNY     93  46  19 S15G22    29.71F
$$

CAZ031-033-041-043-047-048-061-040000-
SOUTHERN CALIFORNIA

CITY           SKY/WX    TMP DP  RH WIND       PRES   REMARKS
DOWNTOWN L.A.  SUNNY     66  52  60 VRB3      29.88F
L.A. AIRPORT   MOSUNNY   62  52  69 W20       29.90F
SAN DIEGO      PTSUNNY   66  52  60 NW12      29.91F
BURBANK        SUNNY     70  51  51 S12       29.86F
ONTARIO        MOSUNNY   76  51  41 W15G22    29.84F
RIVERSIDE      SUNNY     77  51  40 W14G20    29.83F
PALM SPRINGS   SUNNY     95  40  14 NW15      29.71F
EL CENTRO NAS  SUNNY     93  46  19 SE12G18   29.69F
IMPERIAL       SUNNY     94  47  20 SE17      29.67F
BLYTHE         SUNNY     92  47  21 S15       29.70F
$$

NVZ020-UTZ003-040000-
SOUTHERN NEVADA-UTAH

CITY           SKY/WX    TMP DP  RH WIND       PRES   REMARKS
LAS VEGAS      NOT AVBL
SALT LAKE CITY PTSUNNY   75  30  19 VRB3      29.83F
$$

NMZ009-TXZ055-040000-
NEW MEXICO-WEST TEXAS

CITY           SKY/WX    TMP DP  RH WIND       PRES   REMARKS
ALBUQUERQUE    PTSUNNY   75  31  19 W23G30    29.96F
EL PASO        PTSUNNY   87  32  14 W15G22    29.85F
$$


........................KEY........................
SKY/WX - SKY CONDITION/WEATHER
TMP    - TEMPERATURE IN FAHRENHEIT
DP     - DEW POINT IN FAHRENHEIT
RH     - RELATIVE HUMIDITY IN PERCENT
WIND   - DIRECTION AND SPEED IN MILES PER HOUR (MPH)
VRB    - VARIABLE WIND DIRECTION
PRES   - MEAN SEA LEVEL PRESSURE IN INCHES OF MERCURY
         F - FALLING PRESSURE   R - RISING PRESSURE
         S - STEADY PRESSURE
VSB    - VISIBILITY IN MILES
HX     - HEAT INDEX IN FAHRENHEIT
WCI    - WIND CHILL INDEX IN FAHRENHEIT
TC     - TEMPERATURE IN CELSIUS WHICH IS ALSO KNOWN AS
         TEMPERATURE IN CENTIGRADE
AFB    - AIR FORCE BASE
         LUKE AFB IS LUKE AIR FORCE BASE
         DAVIS-MONTHAN IS DAVIS-MONTHAN AIR FORCE BASE
NAS    - NAVAL AIR STATION
         EL CENTRO NAS IS EL CENTRO NAVAL AIR STATION
N/A    - NOT AVAILABLE



USA.gov is the U.S. government's official web portal to all federal, state and local government web resources and services.